Tracking 30923 objects as of 1-Jul-2025
HD Live streaming from Space Station
objects crossing your sky now

THOR ABLESTAR DEB

Track THOR ABLESTAR DEB now!
10-day predictions


NORAD ID: 21986
Int'l Code: 1961-015MM
Perigee: 805.4 km
Apogee: 954.1 km
Inclination: 66.9 °
Period: 102.4 minutes
Semi major axis: 7250 km
RCS: 0.0015 m2 (small)
Launch date: June 29, 1961
Source: United States (US)
Launch site: AIR FORCE EASTERN TEST RANGE (AFETR)

Note: This is SATELLITE DEBRIS
Your satellite tracking list
COSMOS 2251 DEB
Track 1 satellite(s)




NASA's NSSDC Master Catalog

Two Line Element Set (TLE):
1 21986U 61015MM  25180.84009376  .00000070  00000-0  86713-4 0  9998
2 21986  66.8773 326.1549 0102506 288.8792 224.6494 14.06142097703356
Source of the keplerian elements: AFSPC